Weather in Kem

Russia / Republic of Karelia     64°57′19″N   34°35′54″E
temp.,
°C
wind,
m/s
gust,
m/s
humid.,
%
clouds,
%
prec.,
mm/h
press.,
hPa
HPBL,
m
27 february, sat
sat2700:00−1nw2496100 0.1 1002113
03:00−1nnw3597100 0.1 1005152
06:00−4nnw479598 0.1 1006240
09:00−5nnw499498 0.2 1010287
12:00−2nnw5108685 0.0 1012474
15:00−1nw488842 0.0 1013290
18:00−4wnw369289 0.0 1013101
21:00−6wnw349345 0.0 101472
28 february, sun
sun2800:00−8w349332 0.0 101254
03:00−8wsw339261 0.0 101147
06:00−7wsw2390100 0.0 101047
09:00−6sw239099 0.0 101049
12:00−3sw3692100 0.0 1010301
15:00−1w479398 0.0 1010450
18:000w3794100 0.0 1010287
21:00−1w369396 0.0 1011196
1 march, mon
mon100:00−3wsw369471 0.0 1010105
03:000wsw5129085 0.0 1009313
06:00+1wsw7139796 0.0 1005516
09:00+2w7159298 0.0 1003721
12:00+2w61394100 0.0 1001532
15:00+2w61297100 0.1 1001509
18:000w6148839 0.0 1001497
21:00−1w6138723 0.0 999395
2 march, tue
tue200:00−1w6138789 0.0 998482
03:00−2w6128795 0.0 997315
06:00−2wnw51294100 0.1 998528
09:00−2nw8157997 0.1 1001773
12:00−3nw8147638 0.0 1005850
15:00−2nw6127745 0.0 1008722
18:00−3wnw5128516 0.0 1009397
21:00−3nw6158431 0.0 1009588
3 march, wed
wed300:00−3nw6148358 0.0 1011436
03:00−6nw489040 0.0 1012198
06:00−6nw510900 0.0 1013239
09:00−8wnw48880 0.0 1013186
12:00−5w47850 0.0 1012284
15:00−3wsw49870 0.0 1010347
18:00−4sw5118674 0.0 1005283
21:00−2sw7149587 0.3 998737